TimeMST,TemperatureF,Dew PointF,Humidity,Sea Level PressureIn,VisibilityMPH,Wind Direction,Wind SpeedMPH,Gust SpeedMPH,PrecipitationIn,Events,Conditions,WindDirDegrees,DateUTC
12:53 AM,19.9,7.0,57,30.06,10.0,West,4.6,-,N/A,,Clear,270,2013-12-28 07:53:00
1:53 AM,19.0,8.1,62,30.03,10.0,West,8.1,-,N/A,,Clear,270,2013-12-28 08:53:00
2:53 AM,16.0,6.1,65,30.02,10.0,SW,8.1,-,N/A,,Clear,230,2013-12-28 09:53:00
3:53 AM,17.1,7.0,65,29.99,10.0,West,10.4,-,N/A,,Clear,280,2013-12-28 10:53:00
4:53 AM,14.0,6.1,71,29.99,10.0,West,8.1,-,N/A,,Clear,260,2013-12-28 11:53:00
5:53 AM,14.0,6.1,71,30.02,10.0,SW,6.9,-,N/A,,Clear,220,2013-12-28 12:53:00
6:53 AM,15.1,7.0,70,30.01,10.0,WSW,5.8,-,N/A,,Clear,240,2013-12-28 13:53:00
7:53 AM,19.9,9.0,62,30.00,10.0,SW,3.5,-,N/A,,Clear,230,2013-12-28 14:53:00
8:53 AM,28.0,12.0,51,29.98,10.0,West,8.1,-,N/A,,Clear,280,2013-12-28 15:53:00
9:53 AM,35.1,14.0,42,29.94,10.0,West,6.9,-,N/A,,Clear,280,2013-12-28 16:53:00
10:53 AM,43.0,14.0,31,29.90,10.0,NW,5.8,-,N/A,,Clear,310,2013-12-28 17:53:00
11:53 AM,48.9,15.1,26,29.85,10.0,NW,4.6,-,N/A,,Clear,310,2013-12-28 18:53:00
12:53 PM,53.1,16.0,23,29.79,10.0,Calm,Calm,-,N/A,,Clear,0,2013-12-28 19:53:00
1:53 PM,55.9,16.0,21,29.76,10.0,ESE,3.5,-,N/A,,Clear,120,2013-12-28 20:53:00
2:53 PM,57.9,17.1,20,29.77,10.0,North,6.9,-,N/A,,Clear,10,2013-12-28 21:53:00
3:53 PM,55.0,17.1,23,29.78,10.0,ESE,4.6,-,N/A,,Clear,110,2013-12-28 22:53:00
4:53 PM,48.0,16.0,28,29.85,10.0,NE,9.2,-,N/A,,Clear,50,2013-12-28 23:53:00
5:53 PM,46.9,19.9,34,29.91,10.0,NNE,19.6,-,N/A,,Clear,30,2013-12-29 00:53:00
6:53 PM,43.0,23.0,45,29.98,7.0,NNE,21.9,36.8,N/A,,Clear,30,2013-12-29 01:53:00
7:53 PM,39.0,21.9,50,30.03,10.0,NNE,21.9,28.8,N/A,,Clear,30,2013-12-29 02:53:00
8:53 PM,36.0,23.0,59,30.06,10.0,NNE,19.6,26.5,N/A,,Partly Cloudy,20,2013-12-29 03:53:00
9:53 PM,33.1,21.9,64,30.09,10.0,NE,13.8,25.3,N/A,,Clear,40,2013-12-29 04:53:00
10:53 PM,30.9,21.0,67,30.13,10.0,NNE,10.4,-,N/A,,Mostly Cloudy,30,2013-12-29 05:53:00
11:53 PM,28.9,19.0,67,30.16,10.0,NNE,13.8,29.9,N/A,,Overcast,30,2013-12-29 06:53:00